CDT,Max TemperatureF,Mean TemperatureF,Min TemperatureF,Max Dew PointF,MeanDew PointF,Min DewpointF,Max Humidity, Mean Humidity, Min Humidity, Max Sea Level PressureIn, Mean Sea Level PressureIn, Min Sea Level PressureIn, Max VisibilityMiles, Mean VisibilityMiles, Min VisibilityMiles, Max Wind SpeedMPH, Mean Wind SpeedMPH, Max Gust SpeedMPH,PrecipitationIn, CloudCover, Events, WindDirDegrees
2012-10-1,64,52,39,52,41,32,92,61,30,30.23,30.14,30.03,10,10,5,25,13,40,0.05,3,Rain,341
2012-10-2,81,58,34,35,32,30,89,47,16,30.08,29.89,29.76,10,10,10,22,9,31,0.00,0,,192
2012-10-3,74,58,41,41,36,31,79,48,25,30.17,29.82,29.68,10,10,10,30,14,39,0.00,1,,247
2012-10-4,46,39,32,34,30,24,90,68,48,30.36,30.30,30.19,10,10,10,28,17,38,0.00,5,Thunderstorm,321
2012-10-5,46,36,27,28,22,16,84,61,30,30.37,30.33,30.29,10,10,10,15,5,24,0.00,2,,298
2012-10-6,45,33,22,22,17,12,83,58,29,30.39,30.34,30.27,10,10,10,14,6,21,0.00,2,,314
2012-10-7,59,40,22,28,23,14,91,57,20,30.26,30.07,29.91,10,10,10,17,9,26,0.00,0,,249
2012-10-8,69,54,39,41,31,25,69,46,24,29.90,29.83,29.78,10,10,10,18,11,24,0.00,2,,287
2012-10-9,52,42,31,42,30,23,84,59,35,30.16,30.02,29.87,10,10,10,24,11,33,0.00,4,Rain,315
2012-10-10,68,48,29,35,30,23,83,54,27,30.16,30.04,29.91,10,10,10,21,8,28,0.02,2,,225
2012-10-11,49,40,30,34,29,24,78,61,41,30.36,30.16,29.90,10,10,10,20,12,28,0.00,0,,22
2012-10-12,57,40,24,36,27,17,86,61,28,30.36,30.13,29.85,10,10,7,25,11,31,0.00,2,,166
2012-10-13,72,58,43,41,37,30,87,53,26,29.88,29.74,29.68,10,10,10,20,13,25,0.00,1,,297
2012-10-14,71,57,43,39,34,31,69,45,24,30.03,29.99,29.88,10,10,7,26,11,33,0.00,1,,302
2012-10-15,80,60,40,35,32,29,73,41,17,30.01,29.85,29.67,10,10,7,15,6,18,0.00,0,,221
2012-10-16,76,60,45,45,37,30,77,40,22,29.72,29.56,29.31,10,10,7,33,9,44,0.00,1,,254
2012-10-17,57,52,44,47,28,13,83,45,19,29.71,29.60,29.38,10,10,7,40,25,54,0.00,3,Rain,302
2012-10-18,48,46,42,31,25,18,62,47,34,29.88,29.74,29.66,10,9,4,50,34,64,0.00,5,,313
2012-10-19,57,45,33,31,23,9,84,52,15,29.91,29.84,29.75,10,10,10,28,18,40,0.00,1,,316
2012-10-20,80,58,36,30,22,10,50,27,14,29.76,29.65,29.57,10,10,7,16,8,20,0.00,0,,188
2012-10-21,66,55,44,45,37,25,87,53,31,29.92,29.78,29.58,10,10,10,23,12,31,0.00,0,,349
2012-10-22,48,44,40,46,42,40,100,92,75,29.96,29.89,29.81,10,6,0,15,9,22,0.00,8,Fog,15
2012-10-23,76,60,45,50,44,35,100,73,22,29.89,29.72,29.64,10,7,1,23,9,29,0.00,4,,237
2012-10-24,50,41,32,40,35,30,99,80,47,29.99,29.91,29.86,10,9,1,26,12,37,0.00,5,Rain-Snow,1
2012-10-25,32,31,30,32,26,23,100,83,71,30.35,30.17,29.96,10,8,1,22,18,28,0.01,8,Snow,324
2012-10-26,32,26,21,28,23,19,92,76,64,30.48,30.40,30.29,10,10,10,17,10,22,0.00,7,,279
2012-10-27,45,32,21,32,27,20,95,83,59,30.29,30.17,30.08,10,10,7,23,10,26,0.00,2,,194
2012-10-28,57,40,23,32,27,21,95,67,30,30.16,30.07,29.97,10,10,7,17,7,22,0.00,1,,182
2012-10-29,69,49,30,36,32,27,89,57,26,30.05,30.01,29.96,10,9,0,15,7,22,0.00,2,,169
2012-10-30,66,51,36,39,36,31,84,58,33,30.03,29.99,29.96,10,10,4,13,6,18,0.00,2,,30
2012-10-31,72,54,36,42,35,29,90,58,21,30.04,30.00,29.97,10,10,7,13,5,18,0.00,1,,274